Location: Erfurt
(50.9830°N, 11.0330°E)
Time: 15:24:08
(UTC+02:00)

ISS - Visible Passes

Search period start: 21 October 2018 00:00
Search period end: 30 October 2018 23:00
Orbit: 403 x 408 km, 51.6° (Epoch: 21 October)

Date Brightness Start Highest point End Pass type
(mag) Time Alt. Az. Time Alt. Az. Time Alt. Az.
26 Oct -0.7 07:07:20 10° S 07:09:01 13° SE 07:10:41 10° ESE visible
28 Oct -1.6 05:58:24 10° SSW 06:01:07 24° SE 06:03:51 10° E visible
29 Oct -1.1 05:07:11 10° S 05:09:16 16° SE 05:11:21 10° E visible
30 Oct -2.7 05:50:10 10° SW 05:53:17 41° SSE 05:56:25 10° E visible
